Flag for U.S.A. Weather past 2 weeks in Fort Lauderdale, Florida, U.S.A.

Now
85 °F

Passing clouds.


Feels Like: 90 °F
Forecast: 80 / 89 °F
Wind: 10 mph from Southeast

Location: Fort Lauderdale / Hollywood International Airport

Current Time: Aug 27, 2014 at 9:43:53 PM

Latest Report: Aug 27, 2014 at 8:53 PM


Visibility: 10 mi

Pressure: 29.96 "Hg

Humidity: 63%

Dew point: 71 °F

Location of Fort LauderdaleLocation

Historic Weather in Fort Lauderdale — Graph

°F

Fort Lauderdale temperature yesterday

Maximum temperature yesterday: 91 °F (at 2:53 PM)
Minimum temperature yesterday: 83 °F (at 7:53 AM)
Average temperature yesterday: 86 °F

Past Weeks' High & Low Weather Summary

 TemperatureHumidityPressure
High94 °F (Aug 24, 2:53 PM)97% (Aug 15, 2:53 PM)30.11 "Hg (Aug 15, 2:53 PM)
Low73 °F (Aug 15, 2:53 PM)46% (Aug 19, 3:53 PM)29.71 "Hg (Aug 25, 4:53 PM)
Average86 °F69%29.97 "Hg
* Reported Aug 12 7:53 PM — Aug 27 7:53 PM, Fort Lauderdale, Weather by CustomWeather, © 2014

Note: Actual official high and low records may vary slightly from our data, if they occured in-between our weather recording intervals... More about our weather records

Advertising

Fort Lauderdale weather history for previous 24 hours

 ConditionsComfort  
Time TempWeatherWind HumidityBarometerVisibility
7:53 PM
Aug 27
86 °FScattered clouds.13 mph63%29.94 "Hg10 mi
6:53 PM87 °FScattered clouds.13 mph61%29.93 "Hg10 mi
5:53 PM88 °FPassing clouds.14 mph59%29.92 "Hg10 mi
4:53 PM89 °FPassing clouds.13 mph57%29.91 "Hg10 mi
3:53 PM89 °FPassing clouds.12 mph57%29.91 "Hg10 mi
2:53 PM90 °FPassing clouds.13 mph57%29.93 "Hg10 mi
1:53 PM90 °FPassing clouds.13 mph52%29.94 "Hg10 mi
12:53 PM89 °FPassing clouds.13 mph55%29.94 "Hg10 mi
11:53 AM89 °FPassing clouds.12 mph55%29.94 "Hg10 mi
10:53 AM89 °FPassing clouds.13 mph57%29.95 "Hg10 mi
9:53 AM87 °FPassing clouds.9 mph59%29.94 "Hg10 mi
8:53 AM82 °FBroken clouds.No wind72%29.93 "Hg10 mi
7:53 AM80 °FPassing clouds.5 mph76%29.92 "Hg10 mi
6:53 AM79 °FPartly cloudy.3 mph77%29.90 "Hg10 mi
5:53 AM78 °FPassing clouds.5 mph76%29.88 "Hg10 mi
4:53 AM80 °FPassing clouds.5 mph71%29.88 "Hg10 mi
3:53 AM80 °FPassing clouds.5 mph69%29.88 "Hg10 mi
2:53 AM82 °FPassing clouds.5 mph65%29.88 "Hg10 mi
1:53 AM83 °FPassing clouds.7 mph63%29.88 "Hg10 mi
12:53 AM83 °FPassing clouds.7 mph63%29.88 "Hg10 mi
11:53 PM
Aug 26
84 °FPassing clouds.7 mph59%29.89 "Hg10 mi
10:53 PM84 °FPassing clouds.8 mph63%29.89 "Hg10 mi
9:53 PM85 °FPassing clouds.9 mph63%29.89 "Hg10 mi
Weather by CustomWeather, © 2014

See weather overviewHow to use our weather pages